Weather in Alencon

France     48°25′59″N   0°05′37″E
temp.,
°C
wind,
m/s
gust,
m/s
humid.,
%
clouds,
%
prec.,
mm/h
press.,
hPa
HPBL,
m
29 june, wed
wed2923:00+13wsw24687 0.0 101772
02:00+12wsw267953 0.0 1016173
05:00+10ssw229699 0.0 101526
08:00+12s2590100 0.0 1015222
11:00+17ssw467499 0.0 1015849
14:00+14ssw2897100 1.3 1015425
17:00+21ssw475373 0.4 10131810
20:00+17ssw3563100 0.7 1012187
30 june, thu
thu3023:00+14wsw2573100 0.0 1013116
02:00+9w1190100 0.0 101310
05:00+10wsw1189100 0.0 101312
08:00+11s1285100 0.0 1013114
11:00+15ssw2374100 0.3 1013891
14:00+17sw456096 1.4 10131469
17:00+14w378038 1.8 1014549
20:00+15wnw475625 2.0 10141157
1 july, fri
fri123:00+10w22795 0.0 101722
02:00+8w12945 0.0 101817
05:00+7wsw22961 0.0 101924
08:00+10sw24860 0.0 1020192
11:00+16wsw46530 0.0 10201190
14:00+20wsw453957 0.0 10202177
17:00+22wsw443589 0.0 10192453
20:00+20w234615 0.0 1020852
2 july, sat
sat223:00+12nne11740 0.0 102111
02:00+10e11800 0.0 102110
05:00+9e11820 0.0 102110
08:00+13sse13690 0.0 1021111
11:00+20s34470 0.0 1021913
14:00+24ssw34350 0.0 10191788
17:00+26sw342923 0.0 10182156
20:00+22nnw3543100 0.0 1019391
3 july, sun
sun323:00+13n26786 0.0 1021115
02:00+10nnw229666 0.0 102242
05:00+10nnw239877 0.0 102166
08:00+12nnw238259 0.0 1022165
11:00+19nnw235021 0.0 1021823
14:00+24nw23340 0.0 10201745
17:00+25nw23295 0.0 10192218
20:00+20n57550 0.0 1020647